SCP
0 0 0 0 0 0 0 0 0 0 0 0 0 1 1 2 4 5 4 3 1 1 1 1 2 2 2 3 3 3 3 3 2 2 2 3 3 5 6 7 7 8 9 9
0 0 0 0 0 0 1 1 0 0 0 0 1 1 2 3 4 5 4 2 1 1 1 2 2 2 2 3 4 4 4 4 4 4 4 4 3 4 5 6 7 7 7 8
0 0 0 0 0 1 1 1 1 0 1 1 1 2 3 3 4 4 3 2 1 1 1 2 3 3 3 4 5 6 6 5 5 6 6 5 4 3 3 4 4 5 5 6
0 0 0 0 0 0 1 1 1 0 1 1 1 2 3 3 3 3 2 1 1 1 2 3 3 4 4 5 7 7 7 6 6 6 6 5 4 2 2 2 2 3 4 4
0 0 0 0 0 0 0 0 0 0 1 1 1 2 2 2 3 2 1 1 1 1 2 3 3 4 4 6 7 7 6 5 6 6 5 4 4 3 2 2 2 2 3 3
0 0 0 0 0 0 0 0 0 0 1 1 1 1 1 2 2 2 2 1 1 1 2 2 3 3 4 5 5 5 4 4 5 5 5 4 4 3 3 2 2 3 3 3
0 0 0 0 0 0 0 0 0 1 1 1 1 1 1 2 3 3 2 2 1 1 1 2 2 3 3 3 3 3 4 4 4 4 4 4 4 4 3 3 3 3 3 3
0 0 0 0 0 0 0 0 0 1 1 1 2 2 2 3 3 3 3 2 2 2 1 1 2 2 2 2 2 3 3 4 4 4 4 4 5 4 4 3 3 3 3 2
0 0 0 0 0 0 0 0 0 1 1 2 3 3 3 3 3 4 4 5 4 4 3 2 2 2 2 2 2 3 3 4 4 4 4 4 5 5 5 4 3 3 3 3
0 0 0 0 1 1 0 0 1 1 1 2 3 3 3 3 4 6 8 8 7 6 4 3 2 2 2 2 2 3 3 3 3 3 3 4 4 5 5 5 4 4 3 3
0 0 1 1 1 1 1 1 1 1 2 2 3 2 2 3 5 8 11 10 8 6 5 3 2 1 1 1 2 2 3 3 3 3 3 3 3 4 4 4 4 4 3 3
0 0 1 1 1 1 1 1 2 2 2 2 2 2 2 2 4 6 8 8 7 6 5 3 2 1 1 1 1 1 2 3 4 4 3 3 3 2 3 3 3 2 2 2
0 0 1 1 1 1 1 1 2 2 2 2 2 2 2 2 2 3 4 5 5 5 5 3 2 2 1 1 1 1 2 3 4 5 5 4 3 3 2 3 3 2 1 1
0 0 0 1 1 1 1 1 1 1 1 1 2 2 2 2 2 2 2 3 3 3 4 3 3 2 2 1 1 1 2 2 4 6 7 6 5 4 4 4 4 4 2 1
0 0 0 0 0 0 0 0 0 0 0 0 1 1 1 1 1 2 2 2 2 2 3 4 4 3 2 1 1 1 2 2 4 6 8 8 7 6 5 5 5 5 4 3
0 0 0 0 0 0 0 0 0 0 0 0 0 0 0 1 1 1 1 1 1 1 2 4 4 3 2 2 2 2 2 2 2 4 6 6 6 5 5 5 5 5 5 5
0 0 0 0 0 0 0 0 0 0 0 0 1 1 1 1 1 1 1 0 0 1 1 2 2 2 2 2 2 2 3 2 2 2 3 3 3 3 3 3 3 3 4 5
0 0 0 0 0 0 0 0 0 0 0 0 1 1 2 2 1 1 0 0 0 0 0 0 0 1 1 1 2 3 3 3 2 2 1 1 1 1 1 1 1 2 2 3
0 0 1 1 1 0 0 0 0 0 0 0 1 1 2 2 2 1 0 0 0 0 0 0 0 0 0 1 2 3 3 3 3 2 1 1 1 1 1 0 0 1 1 2
0 0 1 1 1 0 0 0 0 0 0 0 0 1 2 3 2 1 0 0 0 0 0 0 0 0 0 0 2 3 3 3 3 2 1 1 1 1 0 0 0 0 1 2
0 0 1 1 1 0 0 0 0 0 0 0 1 1 2 2 2 1 0 0 0 0 0 0 0 0 0 0 1 3 3 3 3 2 1 1 1 1 0 0 0 1 1 2
0 1 1 1 1 1 1 1 1 1 0 0 1 1 1 1 1 1 0 0 0 0 0 0 0 0 0 0 1 2 3 3 3 3 2 1 1 1 1 0 0 1 1 2
0 1 1 1 1 1 1 1 1 1 1 0 0 0 0 0 0 0 0 0 0 0 0 0 0 0 0 0 0 1 2 3 3 3 2 2 1 1 1 0 0 1 1 2
0 1 1 2 1 2 2 2 1 1 1 1 1 1 0 0 0 0 0 0 0 0 0 0 0 0 0 0 0 1 2 3 4 4 3 2 1 1 1 0 0 1 1 2
0 1 1 1 1 1 2 2 2 2 2 2 1 1 1 1 1 0 1 0 0 0 0 0 0 0 0 0 0 1 2 3 4 4 3 2 1 1 0 0 0 1 1 1
0 0 0 1 1 1 1 1 2 2 2 2 2 2 1 1 1 1 1 1 0 0 0 0 0 0 0 0 1 1 2 3 4 3 2 1 1 0 0 0 0 0 1 1
0 0 0 0 0 0 1 1 1 1 1 2 2 2 1 1 1 1 1 1 1 0 0 0 0 0 0 1 1 2 3 3 3 3 2 1 0 0 0 0 0 0 0 0
Wind_Speed
3 3 3 3 3 5 5 7 8 8 7 8 6 5 5 3 2 1 2 3 4 4 4 4 4 4 4 4 4 5 5 5 5 4 4 3 2 3 2 3 3 2 2 2
1 1 2 2 3 4 4 4 4 3 6 5 3 2 1 2 3 3 3 3 3 3 4 4 5 5 4 3 3 3 4 4 3 3 3 3 2 2 2 2 2 2 2 2
2 2 1 3 4 4 3 3 5 6 7 2 1 2 3 3 3 3 3 3 2 3 4 4 4 4 4 4 3 3 3 3 3 3 3 3 3 2 2 3 2 2 2 2
3 2 4 8 2 4 3 2 3 3 3 3 4 3 1 2 2 2 2 2 2 2 2 2 2 2 3 3 4 3 3 4 3 3 3 3 3 2 2 2 3 2 2 2
4 3 4 5 1 2 3 3 2 2 1 1 2 3 2 0 2 3 3 2 2 2 2 2 3 3 3 2 3 4 4 4 4 4 4 3 3 3 2 2 2 2 2 2
4 4 6 6 3 2 3 3 3 1 2 1 4 2 3 2 1 1 1 1 1 1 1 2 2 3 4 3 3 4 4 4 4 4 4 4 3 3 2 2 3 2 1 1
4 3 6 5 5 1 4 6 3 1 2 3 4 4 3 2 2 2 2 2 2 2 2 1 2 3 3 3 4 4 3 2 2 3 4 3 3 2 2 2 2 1 1 1
4 3 6 3 2 4 5 3 1 1 1 2 2 1 2 3 2 2 2 2 2 2 2 2 2 3 2 3 3 2 2 2 2 2 3 3 3 2 2 3 2 1 1 0
6 6 4 2 2 2 2 1 2 2 1 1 2 2 1 2 2 2 2 2 2 2 2 2 1 2 2 1 1 2 2 2 2 2 2 2 3 3 2 2 2 1 1 1
1 3 3 3 2 1 1 1 2 1 1 3 2 2 2 2 2 2 1 2 2 3 2 1 1 1 1 1 2 3 2 2 2 2 2 1 1 2 2 2 2 2 2 2
1 3 3 3 2 2 1 2 2 2 2 3 4 2 2 1 2 2 1 1 2 2 1 0 1 1 1 2 2 3 2 1 1 2 2 1 1 1 2 2 3 3 2 2
6 6 4 5 3 2 1 1 0 2 3 3 3 2 1 1 1 1 1 1 2 1 1 0 1 0 1 2 2 3 2 1 1 1 1 1 1 1 1 1 1 3 3 3
5 3 3 4 3 2 1 1 0 2 4 3 2 2 2 1 0 1 1 1 2 2 1 1 1 1 1 2 3 3 3 2 2 2 2 2 2 1 1 2 1 1 2 2
3 2 2 3 3 2 1 1 1 3 3 3 2 2 2 1 0 1 1 1 1 1 1 1 1 2 2 2 2 2 2 2 2 2 2 2 2 2 2 2 1 1 1 1
4 4 5 4 2 1 1 2 3 2 2 2 2 2 2 2 1 1 1 0 1 1 0 0 0 2 1 1 1 1 1 1 1 2 2 2 2 2 2 2 1 1 0 1
2 1 2 3 3 2 2 3 3 3 2 2 2 2 2 2 1 1 0 1 2 1 1 1 2 2 1 1 1 1 1 2 2 2 2 2 2 2 2 2 2 1 1 1
3 2 2 3 3 3 3 3 4 3 3 2 2 1 1 2 1 1 1 1 1 2 2 2 2 2 1 1 2 2 1 2 2 2 2 2 2 2 2 2 2 2 2 2
4 4 4 4 4 3 2 2 3 3 3 3 2 2 2 2 2 2 2 1 1 2 3 3 2 2 2 1 2 2 2 2 2 2 2 2 2 2 2 2 2 2 1 1
1 1 1 1 2 2 2 2 2 2 1 2 2 2 2 2 2 2 1 0 1 2 4 3 2 2 1 2 1 1 2 2 2 2 2 2 3 2 2 2 2 2 1 1
1 1 1 0 0 2 2 1 1 1 2 2 2 2 1 2 2 1 1 2 3 4 3 2 2 1 2 2 2 2 2 2 2 2 2 2 3 3 2 2 2 2 2 2
1 1 1 1 1 1 2 2 1 1 2 2 3 3 3 2 2 1 1 2 4 2 2 2 2 2 2 2 2 2 2 2 3 3 3 3 3 3 3 2 2 2 2 2
1 1 1 1 1 0 1 1 2 2 2 2 2 2 2 2 2 1 2 3 3 2 1 1 2 2 2 2 2 2 2 3 3 3 3 3 3 3 3 3 2 2 2 2
0 1 1 1 1 1 1 0 1 2 2 3 3 2 2 2 2 2 3 3 2 2 2 2 2 3 3 2 2 2 2 2 3 3 3 3 3 3 3 3 2 2 2 2
0 0 0 0 1 1 1 2 1 2 2 3 3 3 2 1 1 2 2 2 3 2 2 2 3 3 3 2 2 2 2 2 2 2 2 2 2 2 2 2 2 2 2 2
1 1 1 1 1 2 2 2 1 1 1 1 1 1 1 1 2 2 1 2 2 2 2 2 3 3 2 2 2 2 2 2 2 2 2 2 2 2 2 2 2 1 1 1
1 1 1 2 2 2 2 2 1 1 1 1 1 1 1 1 1 1 1 1 1 2 2 1 1 2 1 1 2 2 2 2 2 2 2 2 2 2 1 1 1 1 1 1
2 1 1 1 1 1 1 1 2 2 2 2 2 2 1 1 1 1 1 1 1 1 1 1 0 1 1 1 1 1 1 1 1 1 1 1 1 1 1 2 1 1 1 1
Wind_Direction
215 225 195 202 211 185 181 184 186 225 226 248 239 226 224 220 211 195 194 192 194 194 195 192 192 195 195 192 179 172 176 191 205 209 201 193 197 200 194 193 202 198 200 210
256 259 218 236 243 207 205 188 204 218 251 253 233 178 208 221 202 207 220 210 198 191 194 200 198 198 192 186 176 165 176 193 200 196 190 184 192 194 188 189 193 187 201 210
220 290 61 264 234 199 195 207 180 203 236 249 167 178 211 224 219 217 219 212 201 201 205 207 199 188 190 187 164 162 178 189 189 187 187 193 194 188 202 204 196 200 207 202
140 108 208 239 241 168 168 239 223 223 236 204 194 186 198 202 196 221 220 216 216 209 202 203 180 174 179 158 150 165 189 196 195 182 185 184 177 195 218 213 203 209 216 213
130 168 253 291 265 158 172 270 254 220 267 289 129 88 16 277 193 205 203 197 210 216 203 183 170 164 150 152 156 179 201 209 204 187 182 179 186 203 211 200 201 199 204 197
133 155 215 237 279 273 121 281 298 206 210 173 122 124 253 243 205 185 139 135 129 130 129 151 167 150 145 165 176 208 216 218 213 190 180 184 193 202 192 191 193 176 177 183
154 190 251 264 295 77 155 240 280 231 209 176 184 204 206 160 160 146 109 90 101 116 118 131 138 144 156 168 195 213 215 203 196 186 180 181 171 168 163 161 147 140 146 163
147 173 243 304 71 158 219 261 268 237 210 201 195 104 121 135 130 118 97 88 99 107 92 78 109 134 157 196 207 181 163 163 165 162 170 166 156 153 140 138 140 142 135 345
184 207 240 269 223 235 192 213 245 224 242 161 153 149 137 138 135 147 142 121 99 103 85 62 86 128 158 230 143 130 129 145 156 139 134 143 150 157 148 147 157 174 182 223
238 271 282 289 288 305 285 263 273 239 133 126 140 152 147 154 151 148 132 117 99 96 88 61 63 94 114 96 107 117 118 136 143 128 118 118 139 152 152 160 170 181 192 212
251 279 316 318 308 306 332 12 37 48 85 117 120 128 147 165 181 173 142 122 123 121 135 156 92 87 78 95 117 114 114 152 158 137 140 120 115 164 170 187 186 189 205 207
216 221 199 248 266 286 324 325 94 83 67 76 114 128 118 151 186 154 141 118 115 129 156 186 117 110 115 135 141 132 137 180 185 165 160 146 125 18 21 198 189 198 204 196
213 211 212 250 272 268 243 251 188 121 127 116 106 116 110 98 160 140 127 132 155 169 181 186 158 228 229 174 156 153 173 198 194 187 178 174 166 177 271 350 6 228 226 218
215 168 238 247 246 268 274 286 94 93 98 120 128 117 107 84 91 155 181 210 181 141 128 175 200 252 249 183 160 165 182 198 191 195 191 191 190 197 201 203 259 314 320 261
241 214 215 232 242 249 210 140 116 102 101 115 127 126 121 131 194 247 247 153 94 74 49 208 249 286 286 174 166 177 181 190 189 196 198 195 194 193 199 201 207 230 332 349
238 221 200 203 211 211 187 168 159 160 169 168 161 171 169 169 203 273 273 147 138 202 257 257 275 287 268 189 184 199 202 190 182 188 193 188 190 190 195 193 196 204 214 220
174 214 203 193 199 205 205 199 188 184 184 187 199 189 146 114 73 4 313 261 200 235 243 236 263 287 272 216 196 204 206 200 189 191 200 200 199 200 199 198 206 217 235 225
206 214 208 198 199 199 205 198 188 192 203 203 173 139 142 157 186 227 261 283 348 327 301 276 262 259 255 235 210 201 193 200 201 204 206 207 205 204 202 206 213 214 242 240
177 193 208 222 210 187 178 195 198 199 213 186 159 166 187 204 202 209 220 194 230 275 282 277 263 252 257 248 209 191 187 194 200 203 204 207 206 201 201 211 215 209 216 225
162 149 159 206 174 158 164 188 187 192 207 182 158 159 222 252 234 214 195 227 241 243 252 257 252 250 248 234 195 192 192 198 208 213 209 209 213 213 211 213 215 214 218 223
194 178 178 197 250 213 183 181 176 193 205 185 176 193 216 243 235 205 203 262 274 258 240 232 229 236 238 218 193 199 205 212 216 217 216 215 217 216 212 212 215 218 224 226
214 200 199 186 158 229 261 218 189 184 193 200 200 191 196 225 235 246 247 246 261 241 217 218 222 229 233 224 212 209 218 226 227 221 215 209 209 208 205 205 212 220 228 228
224 183 169 187 189 218 306 274 199 198 198 204 209 211 220 228 216 212 267 269 249 228 219 225 231 233 233 223 216 214 225 233 231 224 218 210 206 204 203 207 212 219 226 231
14 332 195 209 159 152 250 262 246 232 223 226 220 210 201 217 261 250 243 250 249 244 241 243 237 232 228 228 217 220 225 229 230 226 218 207 205 207 208 210 217 224 226 227
278 248 223 197 208 222 228 239 250 260 266 282 285 263 231 209 223 248 251 252 255 259 271 256 235 228 227 227 223 229 231 226 219 213 205 207 211 209 210 212 214 213 205 207
320 291 262 240 231 227 215 202 220 235 227 268 301 300 300 285 262 261 268 268 266 260 263 256 227 212 210 212 224 230 234 233 223 218 210 202 207 202 195 194 196 180 169 166
334 334 340 340 317 266 224 204 216 232 219 210 254 276 278 280 280 286 298 299 291 267 262 257 214 211 217 220 225 229 231 230 219 201 197 186 183 178 170 173 170 159 150 147